Lid_Strength_Index
2 2 2 1 1 1 1 2 2 1 1 1 1 1 2 2 2 2 2 2 2 1 1 2 2 2 3 3 3 2 2 2 4 10 9 10 10 10 10 9 9 10 10
4 2 3 2 1 1 1 2 2 1 1 1 1 1 2 2 2 1 2 2 3 2 2 2 3 4 3 3 3 3 3 4 5 7 11 12 11 11 10 10 10 9 10
7 6 4 3 2 2 1 2 1 1 1 1 2 2 2 2 2 2 1 2 2 2 3 3 3 4 4 4 4 4 5 7 7 9 12 12 12 11 11 11 11 11 10
8 7 6 5 3 2 2 2 2 2 2 2 2 2 2 3 3 3 2 3 3 3 4 4 4 4 4 5 6 7 8 9 9 11 13 13 12 12 11 12 12 13 12
9 8 6 6 5 4 4 3 3 3 3 3 3 3 4 4 5 5 4 3 4 5 6 6 7 8 9 7 6 8 8 11 13 13 14 13 13 12 12 12 12 13 15
9 8 7 6 6 6 6 5 5 5 5 5 6 6 6 7 9 9 6 5 7 7 10 12 12 13 11 10 9 9 8 10 13 13 14 12 12 12 12 12 14 14 16
8 8 8 7 7 7 7 7 8 6 7 6 5 6 7 8 11 10 10 6 8 9 11 11 12 12 11 11 11 11 12 9 10 10 13 12 12 12 13 13 13 13 15
9 9 9 9 8 9 9 9 9 9 8 8 9 8 8 10 11 11 12 8 9 10 10 11 12 12 12 12 14 14 14 14 13 13 14 13 12 13 12 12 14 14 15
10 10 10 9 9 10 10 10 11 11 12 12 12 13 12 13 12 11 11 12 12 13 12 11 11 12 12 12 13 15 15 15 12 12 12 11 11 11 13 15 19 20 21
10 10 10 10 10 9 9 11 13 13 13 14 14 14 14 14 12 11 10 12 14 14 13 14 13 12 13 12 14 15 16 16 16 15 14 13 13 13 13 15 17 22 23
11 11 11 11 10 9 10 12 14 14 14 14 15 15 14 13 12 12 11 11 12 13 13 14 14 12 12 13 13 14 15 16 15 17 16 16 16 16 16 16 16 18 22
11 11 11 12 11 12 12 13 13 13 13 14 14 15 15 15 13 12 12 11 11 13 13 13 13 12 12 12 14 13 14 15 17 18 18 18 17 17 16 16 16 17 19
12 11 11 12 13 13 12 13 13 13 12 13 13 13 15 15 14 12 11 12 12 14 14 13 12 12 13 13 13 13 15 16 18 18 18 17 17 16 18 21 22 23 23
12 11 11 11 12 13 13 13 12 12 12 13 13 13 14 14 14 13 12 12 13 13 13 13 13 13 13 13 14 15 16 17 18 18 18 18 20 22 23 22 24 24 26
12 11 11 11 12 13 13 12 12 12 11 12 13 13 14 14 13 12 13 13 13 13 14 15 16 17 17 18 18 18 18 18 19 19 20 21 20 21 22 25 26 28 27
12 12 11 11 12 12 13 13 11 11 11 11 11 12 13 12 12 12 12 12 12 13 15 16 17 17 18 18 19 20 20 20 20 22 21 21 22 22 23 26 26 28 28
13 12 12 11 12 12 13 13 14 13 11 11 11 12 12 12 12 12 11 12 12 13 16 16 17 17 18 19 19 20 21 22 24 22 22 23 23 23 24 25 25 26 27
13 12 12 11 11 12 12 13 13 13 13 14 12 12 12 12 12 12 12 12 14 14 15 16 17 17 18 19 20 21 23 23 23 23 24 24 24 24 25 25 26 29 30
13 13 12 12 11 11 11 12 13 13 12 14 14 13 13 12 12 12 12 14 15 15 15 15 16 17 18 20 21 22 22 22 23 25 25 25 24 24 26 28 28 29 31
13 14 13 12 12 11 12 12 13 13 13 14 13 14 14 14 14 14 13 13 14 15 15 17 17 18 20 20 22 23 24 24 25 25 25 25 26 26 27 30 32 34 34
14 14 13 12 12 11 11 12 12 13 13 14 13 13 13 14 14 14 14 14 15 17 17 18 19 21 21 22 23 23 24 24 24 24 25 26 27 29 31 31 35 36 36
16 15 14 13 12 11 12 12 12 13 13 13 13 14 12 13 14 14 16 17 18 18 19 20 21 21 22 23 23 24 24 24 24 25 26 27 29 32 33 33 35 36 37
17 16 15 13 12 11 11 12 13 13 13 13 13 13 13 14 14 16 17 19 21 21 21 21 23 23 23 23 22 23 24 25 25 25 27 28 29 32 34 36 37 37 36
18 17 16 13 12 12 11 11 12 13 13 13 13 13 14 15 17 18 20 21 22 22 22 23 23 24 25 25 25 25 25 25 25 26 27 28 29 32 35 37 36 37 37
20 19 17 15 13 12 11 11 12 13 13 13 14 14 15 17 20 22 23 23 23 23 24 24 24 25 26 26 26 27 25 26 27 28 29 29 30 32 32 37 39 39 39
21 19 18 16 14 11 11 12 12 13 14 15 15 18 21 22 23 24 24 24 24 25 25 25 26 26 27 27 27 26 27 26 28 29 30 30 31 33 34 33 37 39 39